User: anonymous   Login
Location: Poprad
(49.0500°N, 20.3000°E)
Time: 11:05:59
(UTC+02:00)
Language:

COSMOS 2251 DEB - Orbit

View from above orbital plane
View from above orbital plane
View from above satellite
View from above satellite

Ground track
Ground track

The orbit data is extracted from the following two-line orbital elements,

1 33989U 93036FY  24205.93413225  .00059249  00000-0  49754-2 0  9995
2 33989  74.0115  36.8178 0014188 324.3495  35.6742 14.97937656823396
Epoch (UTC): 23 July 2024 22:25:09
Eccentricity: 0.0014188
inclination: 74.0115°
perigee height: 563 km
apogee height: 583 km
right ascension of ascending node: 36.8178°
argument of perigee: 324.3495°
revolutions per day: 14.97937656
mean anomaly at epoch: 35.6742°
orbit number at epoch: 82339

The dashed part of the orbit path shows where the satellite is in the earth's shadow,  

DLR